• In Belarus
  • List of Countries
  • For 7 days
  • Water Temperature
  • Weather Map
  • Weather Widgets
  • user-avatar
    Login

    Hourly Weather Mörön

    Today, 18 September, Wednesday

    Time Temperature Precipitation Wind Pressure Humidity
    00:00 +9°C° 0 mm 1 mps 624 mmHg 51%
    01:00 +9°C° 0 mm 1 mps 624 mmHg 52%
    02:00 +9°C° 0 mm 1 mps 624 mmHg 53%
    03:00 +9°C° 0 mm 1 mps 623 mmHg 54%
    04:00 +8°C° 0 mm 1 mps 623 mmHg 55%
    05:00 +8°C° 0 mm 1 mps 623 mmHg 56%
    06:00 +9°C° 0 mm 1 mps 623 mmHg 57%
    07:00 +8°C° 0 mm 2 mps 624 mmHg 60%
    08:00 +10°C° 0 mm 3 mps 625 mmHg 55%
    09:00 +12°C° 0 mm 4 mps 625 mmHg 50%
    10:00 +14°C° 0 mm 5 mps 626 mmHg 45%
    11:00 +14°C° 0 mm 6 mps 626 mmHg 42%
    12:00 +15°C° 0 mm 6 mps 625 mmHg 39%
    13:00 +16°C° 0 mm 6 mps 626 mmHg 36%
    14:00 +15°C° 0 mm 5 mps 625 mmHg 36%
    15:00 +15°C° 0 mm 5 mps 625 mmHg 36%
    16:00 +15°C° 0 mm 4 mps 625 mmHg 35%
    17:00 +13°C° 0 mm 3 mps 624 mmHg 40%
    18:00 +12°C° 0 mm 2 mps 624 mmHg 46%
    19:00 +11°C° 0 mm 1 mps 624 mmHg 51%
    20:00 +10°C° 0 mm 1 mps 624 mmHg 53%
    21:00 +8°C° 0 mm 2 mps 624 mmHg 54%
    22:00 +8°C° 0 mm 2 mps 624 mmHg 56%
    23:00 +7°C° 0 mm 2 mps 624 mmHg 58%

    Tomorrow, 19 September, Thursday

    Time Temperature Precipitation Wind Pressure Humidity
    00:00 +7°C° 0 mm 2 mps 624 mmHg 60%
    01:00 +6°C° 0 mm 2 mps 624 mmHg 62%
    02:00 +6°C° 0 mm 2 mps 623 mmHg 64%
    03:00 +6°C° 0 mm 2 mps 623 mmHg 66%
    04:00 +5°C° 0 mm 2 mps 623 mmHg 67%
    05:00 +5°C° 0 mm 2 mps 623 mmHg 67%
    06:00 +5°C° 0 mm 2 mps 623 mmHg 67%
    07:00 +5°C° 0 mm 2 mps 624 mmHg 67%
    08:00 +8°C° 0 mm 3 mps 624 mmHg 60%
    09:00 +10°C° 0 mm 3 mps 625 mmHg 53%
    10:00 +12°C° 0 mm 4 mps 625 mmHg 46%
    11:00 +13°C° 0 mm 4 mps 625 mmHg 44%
    12:00 +14°C° 0 mm 4 mps 625 mmHg 42%
    13:00 +14°C° 0 mm 5 mps 625 mmHg 40%
    14:00 +15°C° 0 mm 4 mps 625 mmHg 39%
    15:00 +15°C° 0 mm 4 mps 625 mmHg 39%
    16:00 +15°C° 0 mm 4 mps 625 mmHg 38%
    17:00 +13°C° 0 mm 3 mps 625 mmHg 44%
    18:00 +12°C° 0 mm 2 mps 625 mmHg 49%
    19:00 +10°C° 0 mm 2 mps 624 mmHg 54%
    20:00 +10°C° 0 mm 1 mps 624 mmHg 55%
    21:00 +10°C° 0 mm 1 mps 624 mmHg 57%
    22:00 +9°C° 0 mm 1 mps 624 mmHg 58%
    23:00 +9°C° 0 mm 1 mps 624 mmHg 59%

    Day after tomorrow, 20 September, Friday

    Time Temperature Precipitation Wind Pressure Humidity
    00:00 +8°C° 0 mm 1 mps 624 mmHg 61%
    01:00 +8°C° 0 mm 1 mps 624 mmHg 62%
    02:00 +7°C° 0 mm 1 mps 624 mmHg 64%
    03:00 +7°C° 0 mm 1 mps 624 mmHg 65%
    04:00 +7°C° 0 mm 1 mps 623 mmHg 67%
    05:00 +7°C° 0 mm 1 mps 624 mmHg 67%
    06:00 +7°C° 0 mm 1 mps 624 mmHg 67%
    07:00 +8°C° 0 mm 1 mps 625 mmHg 67%
    08:00 +9°C° 0 mm 1 mps 625 mmHg 61%
    09:00 +11°C° 0 mm 1 mps 625 mmHg 54%
    10:00 +13°C° 0 mm 1 mps 625 mmHg 48%
    11:00 +14°C° 0 mm 1 mps 625 mmHg 44%
    12:00 +15°C° 0 mm 1 mps 626 mmHg 40%
    13:00 +18°C° 0 mm 1 mps 626 mmHg 36%
    14:00 +18°C° 0 mm 1 mps 625 mmHg 35%
    15:00 +18°C° 0 mm 1 mps 625 mmHg 34%
    16:00 +19°C° 0 mm 1 mps 625 mmHg 33%
    17:00 +16°C° 0 mm 1 mps 625 mmHg 40%
    18:00 +14°C° 0 mm 1 mps 624 mmHg 47%
    19:00 +12°C° 0 mm 1 mps 624 mmHg 53%
    20:00 +11°C° 0 mm 1 mps 624 mmHg 54%
    21:00 +11°C° 0 mm 1 mps 624 mmHg 55%
    22:00 +10°C° 0 mm 1 mps 624 mmHg 56%
    23:00 +10°C° 0 mm 1 mps 624 mmHg 56%

    21 September, Saturday

    Time Temperature Precipitation Wind Pressure Humidity
    00:00 +9°C° 0 mm 1 mps 623 mmHg 57%
    01:00 +9°C° 0 mm 1 mps 623 mmHg 57%
    02:00 +8°C° 0 mm 1 mps 623 mmHg 57%
    03:00 +8°C° 0 mm 1 mps 623 mmHg 57%
    04:00 +8°C° 0 mm 1 mps 623 mmHg 57%
    05:00 +8°C° 0 mm 1 mps 623 mmHg 57%
    06:00 +8°C° 0 mm 1 mps 623 mmHg 57%
    07:00 +8°C° 0 mm 1 mps 623 mmHg 57%
    08:00 +10°C° 0 mm 1 mps 624 mmHg 51%
    09:00 +13°C° 0 mm 1 mps 624 mmHg 45%
    10:00 +15°C° 0 mm 1 mps 625 mmHg 39%
    11:00 +16°C° 0 mm 1 mps 625 mmHg 36%
    12:00 +18°C° 0 mm 1 mps 625 mmHg 32%
    13:00 +20°C° 0 mm 1 mps 625 mmHg 29%
    14:00 +20°C° 0 mm 1 mps 625 mmHg 28%
    15:00 +20°C° 0 mm 1 mps 625 mmHg 27%
    16:00 +20°C° 0 mm 1 mps 625 mmHg 27%
    17:00 +18°C° 0 mm 1 mps 625 mmHg 33%
    18:00 +15°C° 0 mm 1 mps 624 mmHg 39%
    19:00 +13°C° 0 mm 1 mps 624 mmHg 45%
    20:00 +12°C° 0 mm 1 mps 624 mmHg 47%
    21:00 +12°C° 0 mm 1 mps 624 mmHg 48%
    22:00 +11°C° 0 mm 1 mps 624 mmHg 50%
    23:00 +11°C° 0 mm 1 mps 624 mmHg 51%

    22 September, Sunday

    Time Temperature Precipitation Wind Pressure Humidity
    00:00 +10°C° 0 mm 1 mps 624 mmHg 51%
    01:00 +10°C° 0 mm 1 mps 624 mmHg 52%
    02:00 +10°C° 0 mm 1 mps 623 mmHg 52%
    03:00 +9°C° 0 mm 1 mps 623 mmHg 52%
    04:00 +9°C° 0 mm 1 mps 623 mmHg 52%
    05:00 +9°C° 0 mm 1 mps 623 mmHg 52%
    06:00 +9°C° 0 mm 1 mps 624 mmHg 53%
    07:00 +9°C° 0 mm 1 mps 624 mmHg 53%
    08:00 +11°C° 0 mm 1 mps 625 mmHg 47%
    09:00 +12°C° 0 mm 0 mps 625 mmHg 42%
    10:00 +14°C° 0 mm 0 mps 626 mmHg 37%
    11:00 +16°C° 0 mm 1 mps 626 mmHg 34%
    12:00 +18°C° 0 mm 1 mps 626 mmHg 32%
    13:00 +19°C° 0 mm 1 mps 626 mmHg 30%
    14:00 +19°C° 0 mm 1 mps 626 mmHg 29%
    15:00 +20°C° 0 mm 1 mps 626 mmHg 29%
    16:00 +19°C° 0 mm 2 mps 626 mmHg 29%
    17:00 +18°C° 0 mm 1 mps 626 mmHg 36%
    18:00 +15°C° 0 mm 1 mps 625 mmHg 42%
    19:00 +13°C° 0 mm 1 mps 625 mmHg 49%
    20:00 +12°C° 0 mm 1 mps 625 mmHg 51%
    21:00 +11°C° 0 mm 1 mps 625 mmHg 52%
    22:00 +11°C° 0 mm 1 mps 625 mmHg 53%
    23:00 +10°C° 0 mm 1 mps 625 mmHg 56%

    23 September, Monday

    Time Temperature Precipitation Wind Pressure Humidity
    00:00 +10°C° 0 mm 1 mps 624 mmHg 58%
    01:00 +10°C° 0 mm 1 mps 624 mmHg 61%
    02:00 +9°C° 0 mm 1 mps 624 mmHg 64%
    03:00 +9°C° 0 mm 1 mps 624 mmHg 67%
    04:00 +8°C° 0 mm 1 mps 624 mmHg 70%
    05:00 +8°C° 0 mm 1 mps 624 mmHg 71%
    06:00 +8°C° 0 mm 1 mps 624 mmHg 72%
    07:00 +8°C° 0 mm 1 mps 623 mmHg 72%
    08:00 +10°C° 0 mm 1 mps 624 mmHg 65%
    09:00 +12°C° 0 mm 1 mps 624 mmHg 57%
    10:00 +15°C° 0 mm 1 mps 625 mmHg 49%
    11:00 +16°C° 0 mm 2 mps 625 mmHg 43%
    12:00 +18°C° 0 mm 2 mps 625 mmHg 37%
    13:00 +20°C° 0 mm 2 mps 625 mmHg 30%
    14:00 +20°C° 0 mm 3 mps 625 mmHg 28%
    15:00 +21°C° 0 mm 3 mps 625 mmHg 26%
    16:00 +21°C° 0 mm 4 mps 625 mmHg 24%
    17:00 +19°C° 0 mm 3 mps 624 mmHg 30%
    18:00 +16°C° 0 mm 2 mps 624 mmHg 36%
    19:00 +14°C° 0 mm 1 mps 623 mmHg 42%
    20:00 +14°C° 0 mm 1 mps 623 mmHg 42%
    21:00 +13°C° 0 mm 1 mps 623 mmHg 42%
    22:00 +12°C° 0 mm 1 mps 623 mmHg 42%
    23:00 +12°C° 0 mm 1 mps 622 mmHg 41%
    Show more